Location: *
(33.8649°S, 62.1526°E)
Time: 12:30:46
(UTC+00:00)

Resurs 1-3 - Pass Details

Date: 17 January 2021
Orbit: 631 x 631 km, 97.9° (Epoch: 02 March)

Event Time Altitude Azimuth Distance (km) Brightness Sun altitude
Rises 16:26:04 0° 160° (SSE) 2,957 7.3 -15.2°
Reaches altitude 10° 16:28:24 10° 152° (SSE) 2,040 6.3 -15.6°
Maximum altitude 16:32:35 40° 81° (E) 936 4.0 -16.2°
Enters shadow 16:34:11 29° 35° (NE) 1,161 4.4 -16.5°
